Flag for Austria Weather for the Past 2 Weeks in Waidhofen an der Thaya, Lower Austria, Austria

Now
66 °F

Mild.


Feels Like: 66 °F
Forecast: 42 / 60 °F
Wind: 8 mph from Northeast

Location: Retz

Current Time: May 2, 2016 at 3:30:59 PM

Latest Report: May 2, 2016 at 3:00 PM


Visibility: N/A

Pressure: 30.02 "Hg (28.29 "Hg at 506m altitude)

Humidity: 45%

Dew Point: 44 °F

Location of Waidhofen an der ThayaLocation

Historic Weather in Waidhofen an der Thaya — Graph

°F

Waidhofen an der Thaya Temperature Yesterday

Maximum temperature yesterday: 61 °F (at 5:00 PM)
Minimum temperature yesterday: 46 °F (at 6:00 AM)
Average temperature yesterday: 54 °F

High & Low Weather Summary for the Past Weeks

 TemperatureHumidityPressure
High68 °F (Apr 17, 3:00 PM)95% (Apr 27, 3:00 AM)30.38 "Hg (Apr 27, 3:00 AM)
Low33 °F (Apr 26, 6:00 AM)27% (Apr 30, 5:00 PM)29.60 "Hg (Apr 26, 6:00 PM)
Average51 °F57%29.97 "Hg
* Reported Apr 17 2:00 PM — May 2 2:00 PM, Waidhofen an der Thaya, Weather by CustomWeather, © 2016

Note: Actual official high and low records may vary slightly from our data, if they occured in-between our weather recording intervals... More about our weather records

Advertising

Waidhofen an der Thaya Weather History for the Previous 24 Hours

Scroll right to see more
 ConditionsComfort  
Time TempWeatherWind HumidityBarometerVisibility
2:00 PM
Mon, May 2
66 °FPartly sunny.8 mph47%30.03 "Hg14 mi
1:00 PM64 °FMild.8 mph49%30.05 "HgN/A
12:00 PM63 °FMild.8 mph52%30.07 "HgN/A
10:00 AM58 °FRefreshingly cool.6 mph60%30.09 "HgN/A
9:00 AM54 °FCool.5 mph66%30.11 "HgN/A
8:00 AM51 °FOvercast.2 mph70%30.11 "Hg11 mi
3:00 AM52 °FCool.8 mph63%30.08 "HgN/A
2:00 AM52 °FCool.8 mph61%30.08 "HgN/A
1:00 AM53 °FCool.8 mph58%30.08 "HgN/A
12:00 AM55 °FCool.8 mph55%30.09 "HgN/A
11:00 PM
Sun, May 1
55 °FRefreshingly cool.8 mph55%30.09 "HgN/A
10:00 PM56 °FRefreshingly cool.7 mph55%30.08 "HgN/A
9:00 PM56 °FRefreshingly cool.7 mph55%30.07 "HgN/A
8:00 PM58 °FPartly sunny.8 mph55%30.06 "Hg12 mi
7:00 PM60 °FRefreshingly cool.8 mph56%30.04 "HgN/A
6:00 PM61 °FRefreshingly cool.7 mph46%30.04 "HgN/A
5:00 PM61 °FRefreshingly cool.7 mph50%30.03 "HgN/A
4:00 PM61 °FRefreshingly cool.6 mph50%30.02 "HgN/A
3:00 PM60 °FRefreshingly cool.6 mph50%30.03 "HgN/A
Weather by CustomWeather, © 2016

See weather overviewHow to use our weather pages